owner,sensor,date,latitude,longitude,vertical_datum,mass_concentration_of_oxygen_in_sea_water,qcFlag 
DISL,ioos:station:DISL:DISL:1,2019-05-01T00:30:00Z,30.2513,-88.0778,2.243,8.96,11111222 
DISL,ioos:station:DISL:DISL:1,2019-05-01T01:30:00Z,30.2513,-88.0778,2.247,8.78,11111222 
DISL,ioos:station:DISL:DISL:1,2019-05-01T02:30:00Z,30.2513,-88.0778,2.26,8.72,11111222 
DISL,ioos:station:DISL:DISL:1,2019-05-01T03:30:00Z,30.2513,-88.0778,2.241,8.53,11111222 
DISL,ioos:station:DISL:DISL:1,2019-05-01T04:30:00Z,30.2513,-88.0778,2.297,8.3,11111222 
DISL,ioos:station:DISL:DISL:1,2019-05-01T06:00:00Z,30.2513,-88.0778,2.278,8.2,11111222 
DISL,ioos:station:DISL:DISL:1,2019-05-01T06:30:00Z,30.2513,-88.0778,2.268,8.25,11111222 
DISL,ioos:station:DISL:DISL:1,2019-05-01T07:30:00Z,30.2513,-88.0778,2.23,8.44,11111222 
DISL,ioos:station:DISL:DISL:1,2019-05-01T08:30:00Z,30.2513,-88.0778,2.236,8.15,11111222 
DISL,ioos:station:DISL:DISL:1,2019-05-01T09:30:00Z,30.2513,-88.0778,2.237,8.18,11111222 
DISL,ioos:station:DISL:DISL:1,2019-05-01T10:30:00Z,30.2513,-88.0778,2.208,8.03,11111222 
DISL,ioos:station:DISL:DISL:1,2019-05-01T11:30:00Z,30.2513,-88.0778,2.224,7.93,11111222 
DISL,ioos:station:DISL:DISL:1,2019-05-01T12:30:00Z,30.2513,-88.0778,2.215,8.22,11111222 
DISL,ioos:station:DISL:DISL:1,2019-05-01T13:30:00Z,30.2513,-88.0778,2.229,7.99,11111222 
DISL,ioos:station:DISL:DISL:1,2019-05-01T14:30:00Z,30.2513,-88.0778,2.229,7.87,11111222 
DISL,ioos:station:DISL:DISL:1,2019-05-01T15:30:00Z,30.2513,-88.0778,2.242,7.44,11111222 
DISL,ioos:station:DISL:DISL:1,2019-05-01T16:30:00Z,30.2513,-88.0778,2.261,7.72,11111222 
DISL,ioos:station:DISL:DISL:1,2019-05-01T17:30:00Z,30.2513,-88.0778,2.238,8.37,11111222 
DISL,ioos:station:DISL:DISL:1,2019-05-01T18:30:00Z,30.2513,-88.0778,2.227,8.92,11111222 
DISL,ioos:station:DISL:DISL:1,2019-05-01T19:30:00Z,30.2513,-88.0778,2.222,9.69,11111222 
DISL,ioos:station:DISL:DISL:1,2019-05-01T20:30:00Z,30.2513,-88.0778,2.206,9.85,11111222 
DISL,ioos:station:DISL:DISL:1,2019-05-01T21:30:00Z,30.2513,-88.0778,2.195,9.83,11111222 
DISL,ioos:station:DISL:DISL:1,2019-05-01T22:30:00Z,30.2513,-88.0778,2.2,9.82,11111222 
DISL,ioos:station:DISL:DISL:1,2019-05-01T23:30:00Z,30.2513,-88.0778,2.204,9.76,11111222 
DISL,ioos:station:DISL:DISL:1,2019-05-02T00:30:00Z,30.2513,-88.0778,2.217,9.66,11111222 
DISL,ioos:station:DISL:DISL:1,2019-05-02T01:30:00Z,30.2513,-88.0778,2.227,9.23,11111222 
DISL,ioos:station:DISL:DISL:1,2019-05-02T02:30:00Z,30.2513,-88.0778,2.245,9.23,11111222 
DISL,ioos:station:DISL:DISL:1,2019-05-02T03:30:00Z,30.2513,-88.0778,2.255,8.96,11111222 
DISL,ioos:station:DISL:DISL:1,2019-05-02T05:00:00Z,30.2513,-88.0778,2.283,8.46,11111222 
DISL,ioos:station:DISL:DISL:1,2019-05-02T05:30:00Z,30.2513,-88.0778,2.286,8.64,11111222 
DISL,ioos:station:DISL:DISL:1,2019-05-02T06:30:00Z,30.2513,-88.0778,2.283,8.53,11111222 
DISL,ioos:station:DISL:DISL:1,2019-05-02T07:30:00Z,30.2513,-88.0778,2.255,7.84,11111222 
DISL,ioos:station:DISL:DISL:1,2019-05-02T08:30:00Z,30.2513,-88.0778,2.253,8.09,11111222 
DISL,ioos:station:DISL:DISL:1,2019-05-02T10:00:00Z,30.2513,-88.0778,2.253,8.34,11111222 
DISL,ioos:station:DISL:DISL:1,2019-05-02T11:00:00Z,30.2513,-88.0778,2.256,8.28,11111222 
DISL,ioos:station:DISL:DISL:1,2019-05-02T12:00:00Z,30.2513,-88.0778,2.263,8.17,11111222 
DISL,ioos:station:DISL:DISL:1,2019-05-02T13:00:00Z,30.2513,-88.0778,2.28,7.94,11111222 
DISL,ioos:station:DISL:DISL:1,2019-05-02T14:00:00Z,30.2513,-88.0778,2.294,8.12,11111222 
DISL,ioos:station:DISL:DISL:1,2019-05-02T15:00:00Z,30.2513,-88.0778,2.289,7.84,11111222 
DISL,ioos:station:DISL:DISL:1,2019-05-02T16:00:00Z,30.2513,-88.0778,2.28,7.91,11111222 
DISL,ioos:station:DISL:DISL:1,2019-05-02T17:00:00Z,30.2513,-88.0778,2.29,8.36,11111222 
DISL,ioos:station:DISL:DISL:1,2019-05-02T18:00:00Z,30.2513,-88.0778,2.268,8.97,11111222 
DISL,ioos:station:DISL:DISL:1,2019-05-02T19:00:00Z,30.2513,-88.0778,2.227,9.7,11111222 
DISL,ioos:station:DISL:DISL:1,2019-05-02T20:00:00Z,30.2513,-88.0778,2.19,9.76,11111222 
DISL,ioos:station:DISL:DISL:1,2019-05-02T21:00:00Z,30.2513,-88.0778,2.168,9.09,11111222 
DISL,ioos:station:DISL:DISL:1,2019-05-02T22:00:00Z,30.2513,-88.0778,2.153,8.75,11111222 
DISL,ioos:station:DISL:DISL:1,2019-05-02T23:00:00Z,30.2513,-88.0778,2.146,8.8,11111222 
DISL,ioos:station:DISL:DISL:1,2019-05-02T23:30:00Z,30.2513,-88.0778,2.164,8.73,11111222 
DISL,ioos:station:DISL:DISL:1,2019-05-03T01:00:00Z,30.2513,-88.0778,2.18,8.09,11111222 
DISL,ioos:station:DISL:DISL:1,2019-05-03T02:00:00Z,30.2513,-88.0778,2.173,7.6,11111222 
DISL,ioos:station:DISL:DISL:1,2019-05-03T02:30:00Z,30.2513,-88.0778,2.187,8.44,11111222 
DISL,ioos:station:DISL:DISL:1,2019-05-03T03:30:00Z,30.2513,-88.0778,2.219,8.22,11111222 
DISL,ioos:station:DISL:DISL:1,2019-05-03T05:00:00Z,30.2513,-88.0778,2.234,7.94,11111222 
DISL,ioos:station:DISL:DISL:1,2019-05-03T05:30:00Z,30.2513,-88.0778,2.24,7.76,11111222 
DISL,ioos:station:DISL:DISL:1,2019-05-03T07:00:00Z,30.2513,-88.0778,2.26,6.49,11111222 
DISL,ioos:station:DISL:DISL:1,2019-05-03T08:00:00Z,30.2513,-88.0778,2.254,6.52,11111222 
DISL,ioos:station:DISL:DISL:1,2019-05-03T09:00:00Z,30.2513,-88.0778,2.246,7.62,11111222 
DISL,ioos:station:DISL:DISL:1,2019-05-03T10:00:00Z,30.2513,-88.0778,2.241,8.11,11111222 
DISL,ioos:station:DISL:DISL:1,2019-05-03T11:00:00Z,30.2513,-88.0778,2.277,8.08,11111222 
DISL,ioos:station:DISL:DISL:1,2019-05-03T12:00:00Z,30.2513,-88.0778,2.308,8.04,11111222 
DISL,ioos:station:DISL:DISL:1,2019-05-03T13:00:00Z,30.2513,-88.0778,2.314,7.04,11111222 
DISL,ioos:station:DISL:DISL:1,2019-05-03T14:00:00Z,30.2513,-88.0778,2.303,7.08,11111222 
DISL,ioos:station:DISL:DISL:1,2019-05-03T15:00:00Z,30.2513,-88.0778,2.322,8.04,11111222 
DISL,ioos:station:DISL:DISL:1,2019-05-03T16:00:00Z,30.2513,-88.0778,2.316,7.18,11111222 
DISL,ioos:station:DISL:DISL:1,2019-05-03T17:00:00Z,30.2513,-88.0778,2.328,9.3,11111222 
DISL,ioos:station:DISL:DISL:1,2019-05-03T18:00:00Z,30.2513,-88.0778,2.298,9.51,11111222 
DISL,ioos:station:DISL:DISL:1,2019-05-03T19:00:00Z,30.2513,-88.0778,2.252,8.66,11111222 
DISL,ioos:station:DISL:DISL:1,2019-05-03T20:00:00Z,30.2513,-88.0778,2.23,8.46,11111222 
DISL,ioos:station:DISL:DISL:1,2019-05-03T21:00:00Z,30.2513,-88.0778,2.171,10.86,11133222 
DISL,ioos:station:DISL:DISL:1,2019-05-03T22:00:00Z,30.2513,-88.0778,2.143,9.83,11111222 
DISL,ioos:station:DISL:DISL:1,2019-05-03T23:00:00Z,30.2513,-88.0778,2.123,9.55,11111222 
DISL,ioos:station:DISL:DISL:1,2019-05-03T23:30:00Z,30.2513,-88.0778,2.106,9.13,11111222 
DISL,ioos:station:DISL:DISL:1,2019-05-04T00:30:00Z,30.2513,-88.0778,2.114,8.74,11111222 
DISL,ioos:station:DISL:DISL:1,2019-05-04T01:30:00Z,30.2513,-88.0778,2.104,8.35,11111222 
DISL,ioos:station:DISL:DISL:1,2019-05-04T02:30:00Z,30.2513,-88.0778,2.113,7.41,11111222 
DISL,ioos:station:DISL:DISL:1,2019-05-04T04:00:00Z,30.2513,-88.0778,2.154,5.98,11111222 
DISL,ioos:station:DISL:DISL:1,2019-05-04T04:30:00Z,30.2513,-88.0778,2.18,6.1,11111222 
DISL,ioos:station:DISL:DISL:1,2019-05-04T05:30:00Z,30.2513,-88.0778,2.2,6.29,11111222 
DISL,ioos:station:DISL:DISL:1,2019-05-04T06:30:00Z,30.2513,-88.0778,2.242,6.18,11111222 
DISL,ioos:station:DISL:DISL:1,2019-05-04T08:00:00Z,30.2513,-88.0778,2.232,6.52,11111222 
DISL,ioos:station:DISL:DISL:1,2019-05-04T09:00:00Z,30.2513,-88.0778,2.269,6.41,11111222 
DISL,ioos:station:DISL:DISL:1,2019-05-04T09:30:00Z,30.2513,-88.0778,2.275,6.44,11111222 
DISL,ioos:station:DISL:DISL:1,2019-05-04T11:00:00Z,30.2513,-88.0778,2.294,5.54,11111222 
DISL,ioos:station:DISL:DISL:1,2019-05-04T12:00:00Z,30.2513,-88.0778,2.322,5.26,11111222 
DISL,ioos:station:DISL:DISL:1,2019-05-04T13:00:00Z,30.2513,-88.0778,2.349,4.23,11111222 
DISL,ioos:station:DISL:DISL:1,2019-05-04T14:00:00Z,30.2513,-88.0778,2.351,4.79,11111222 
DISL,ioos:station:DISL:DISL:1,2019-05-04T15:00:00Z,30.2513,-88.0778,2.384,5.94,11111222 
DISL,ioos:station:DISL:DISL:1,2019-05-04T16:00:00Z,30.2513,-88.0778,2.371,6.29,11111222 
DISL,ioos:station:DISL:DISL:1,2019-05-04T17:00:00Z,30.2513,-88.0778,2.351,6.61,11111222 
DISL,ioos:station:DISL:DISL:1,2019-05-04T18:00:00Z,30.2513,-88.0778,2.323,5.62,11111222 
DISL,ioos:station:DISL:DISL:1,2019-05-04T19:00:00Z,30.2513,-88.0778,2.278,5.21,11111222 
DISL,ioos:station:DISL:DISL:1,2019-05-04T20:00:00Z,30.2513,-88.0778,2.281,5.73,11111222 
DISL,ioos:station:DISL:DISL:1,2019-05-04T21:00:00Z,30.2513,-88.0778,2.194,6.67,11111222 
DISL,ioos:station:DISL:DISL:1,2019-05-04T22:00:00Z,30.2513,-88.0778,2.216,6.71,11111222 
DISL,ioos:station:DISL:DISL:1,2019-05-04T23:00:00Z,30.2513,-88.0778,2.119,6.04,11111222 
DISL,ioos:station:DISL:DISL:1,2019-05-04T23:30:00Z,30.2513,-88.0778,2.157,5.52,11111222 
DISL,ioos:station:DISL:DISL:1,2019-05-05T00:30:00Z,30.2513,-88.0778,2.144,6.79,11111222 
DISL,ioos:station:DISL:DISL:1,2019-05-05T01:30:00Z,30.2513,-88.0778,2.121,6.8,11111222 
DISL,ioos:station:DISL:DISL:1,2019-05-05T02:30:00Z,30.2513,-88.0778,2.13,6.55,11111222 
DISL,ioos:station:DISL:DISL:1,2019-05-05T03:30:00Z,30.2513,-88.0778,2.138,6.3,11111222 
DISL,ioos:station:DISL:DISL:1,2019-05-05T05:00:00Z,30.2513,-88.0778,2.136,5.4,11111222 
DISL,ioos:station:DISL:DISL:1,2019-05-05T05:30:00Z,30.2513,-88.0778,2.14,6.24,11111222 
DISL,ioos:station:DISL:DISL:1,2019-05-05T06:30:00Z,30.2513,-88.0778,2.197,6.16,11111222 
DISL,ioos:station:DISL:DISL:1,2019-05-05T08:00:00Z,30.2513,-88.0778,2.261,6.23,11111222 
DISL,ioos:station:DISL:DISL:1,2019-05-05T09:00:00Z,30.2513,-88.0778,2.268,5.68,11111222 
DISL,ioos:station:DISL:DISL:1,2019-05-05T10:00:00Z,30.2513,-88.0778,2.3,6.3,11111222 
DISL,ioos:station:DISL:DISL:1,2019-05-05T11:00:00Z,30.2513,-88.0778,2.284,6.11,11111222 
DISL,ioos:station:DISL:DISL:1,2019-05-05T12:00:00Z,30.2513,-88.0778,2.334,7.03,11111222 
DISL,ioos:station:DISL:DISL:1,2019-05-05T13:00:00Z,30.2513,-88.0778,2.331,6.2,11111222 
DISL,ioos:station:DISL:DISL:1,2019-05-05T14:00:00Z,30.2513,-88.0778,2.359,5.95,11111222 
DISL,ioos:station:DISL:DISL:1,2019-05-05T15:00:00Z,30.2513,-88.0778,2.36,6.28,11111222 
DISL,ioos:station:DISL:DISL:1,2019-05-05T16:00:00Z,30.2513,-88.0778,2.365,6.57,11111222 
DISL,ioos:station:DISL:DISL:1,2019-05-05T17:00:00Z,30.2513,-88.0778,2.341,6.97,11111222 
DISL,ioos:station:DISL:DISL:1,2019-05-05T18:00:00Z,30.2513,-88.0778,2.376,7.22,11111222 
DISL,ioos:station:DISL:DISL:1,2019-05-05T19:00:00Z,30.2513,-88.0778,2.278,7.35,11111222 
DISL,ioos:station:DISL:DISL:1,2019-05-05T20:00:00Z,30.2513,-88.0778,2.265,7.47,11111222 
DISL,ioos:station:DISL:DISL:1,2019-05-05T21:00:00Z,30.2513,-88.0778,2.205,7.54,11111222 
DISL,ioos:station:DISL:DISL:1,2019-05-05T22:00:00Z,30.2513,-88.0778,2.165,10.9,11133222 
DISL,ioos:station:DISL:DISL:1,2019-05-05T23:00:00Z,30.2513,-88.0778,2.117,10.15,11133222 
DISL,ioos:station:DISL:DISL:1,2019-05-05T23:30:00Z,30.2513,-88.0778,2.091,9.83,11111222 
DISL,ioos:station:DISL:DISL:1,2019-05-06T00:30:00Z,30.2513,-88.0778,2.025,9.48,11111222 
DISL,ioos:station:DISL:DISL:1,2019-05-06T01:30:00Z,30.2513,-88.0778,2.002,9.33,11111222 
DISL,ioos:station:DISL:DISL:1,2019-05-06T02:30:00Z,30.2513,-88.0778,1.993,9.44,11111222 
DISL,ioos:station:DISL:DISL:1,2019-05-06T03:30:00Z,30.2513,-88.0778,1.984,9.08,11111222 
DISL,ioos:station:DISL:DISL:1,2019-05-06T04:30:00Z,30.2513,-88.0778,2.022,9.07,11111222 
DISL,ioos:station:DISL:DISL:1,2019-05-06T05:30:00Z,30.2513,-88.0778,2.05,8.81,11111222 
DISL,ioos:station:DISL:DISL:1,2019-05-06T06:30:00Z,30.2513,-88.0778,2.063,7.82,11111222 
DISL,ioos:station:DISL:DISL:1,2019-05-06T07:30:00Z,30.2513,-88.0778,2.105,7.73,11111222 
DISL,ioos:station:DISL:DISL:1,2019-05-06T08:30:00Z,30.2513,-88.0778,2.122,8.36,11111222 
DISL,ioos:station:DISL:DISL:1,2019-05-06T09:30:00Z,30.2513,-88.0778,2.169,7.64,11111222 
DISL,ioos:station:DISL:DISL:1,2019-05-06T10:30:00Z,30.2513,-88.0778,2.228,7.48,11111222 
DISL,ioos:station:DISL:DISL:1,2019-05-06T11:30:00Z,30.2513,-88.0778,2.245,6.23,11111222 
DISL,ioos:station:DISL:DISL:1,2019-05-06T12:30:00Z,30.2513,-88.0778,2.282,6.16,11111222 
DISL,ioos:station:DISL:DISL:1,2019-05-06T13:30:00Z,30.2513,-88.0778,2.325,6.47,11111222 
DISL,ioos:station:DISL:DISL:1,2019-05-06T15:00:00Z,30.2513,-88.0778,2.348,6.59,11111222 
DISL,ioos:station:DISL:DISL:1,2019-05-06T16:00:00Z,30.2513,-88.0778,2.38,6.85,11111222 
DISL,ioos:station:DISL:DISL:1,2019-05-06T17:00:00Z,30.2513,-88.0778,2.407,7.12,11111222 
DISL,ioos:station:DISL:DISL:1,2019-05-06T18:00:00Z,30.2513,-88.0778,2.386,7.29,11111222 
DISL,ioos:station:DISL:DISL:1,2019-05-06T19:00:00Z,30.2513,-88.0778,2.331,7.33,11111222 
DISL,ioos:station:DISL:DISL:1,2019-05-06T20:00:00Z,30.2513,-88.0778,2.285,7.68,11111222 
DISL,ioos:station:DISL:DISL:1,2019-05-06T21:00:00Z,30.2513,-88.0778,2.221,8.01,11111222 
DISL,ioos:station:DISL:DISL:1,2019-05-06T22:00:00Z,30.2513,-88.0778,2.158,9.72,11111222 
DISL,ioos:station:DISL:DISL:1,2019-05-06T23:00:00Z,30.2513,-88.0778,2.096,10.46,11133222 
DISL,ioos:station:DISL:DISL:1,2019-05-06T23:30:00Z,30.2513,-88.0778,2.062,10.57,11133222 
DISL,ioos:station:DISL:DISL:1,2019-05-07T00:30:00Z,30.2513,-88.0778,2.009,10.34,11133222 
DISL,ioos:station:DISL:DISL:1,2019-05-07T01:30:00Z,30.2513,-88.0778,1.949,9.91,11111222 
DISL,ioos:station:DISL:DISL:1,2019-05-07T02:30:00Z,30.2513,-88.0778,1.947,9.2,11111222 
DISL,ioos:station:DISL:DISL:1,2019-05-07T03:30:00Z,30.2513,-88.0778,1.933,8.95,11111222 
DISL,ioos:station:DISL:DISL:1,2019-05-07T04:30:00Z,30.2513,-88.0778,1.927,8.82,11111222 
DISL,ioos:station:DISL:DISL:1,2019-05-07T05:30:00Z,30.2513,-88.0778,1.945,8.34,11111222 
DISL,ioos:station:DISL:DISL:1,2019-05-07T06:30:00Z,30.2513,-88.0778,1.972,7.78,11111222 
DISL,ioos:station:DISL:DISL:1,2019-05-07T07:30:00Z,30.2513,-88.0778,2.004,7.58,11111222 
DISL,ioos:station:DISL:DISL:1,2019-05-07T08:30:00Z,30.2513,-88.0778,2.054,7.76,11111222 
DISL,ioos:station:DISL:DISL:1,2019-05-07T09:30:00Z,30.2513,-88.0778,2.102,7.88,11111222 
DISL,ioos:station:DISL:DISL:1,2019-05-07T11:00:00Z,30.2513,-88.0778,2.189,5.74,11111222 
DISL,ioos:station:DISL:DISL:1,2019-05-07T11:30:00Z,30.2513,-88.0778,2.197,5.76,11111222 
DISL,ioos:station:DISL:DISL:1,2019-05-07T12:30:00Z,30.2513,-88.0778,2.262,5.63,11111222 
DISL,ioos:station:DISL:DISL:1,2019-05-07T14:00:00Z,30.2513,-88.0778,2.324,5.42,11111222 
DISL,ioos:station:DISL:DISL:1,2019-05-07T15:00:00Z,30.2513,-88.0778,2.37,5.36,11111222 
DISL,ioos:station:DISL:DISL:1,2019-05-07T16:00:00Z,30.2513,-88.0778,2.4,5.39,11111222 
DISL,ioos:station:DISL:DISL:1,2019-05-07T17:00:00Z,30.2513,-88.0778,2.421,6.67,11111222 
DISL,ioos:station:DISL:DISL:1,2019-05-07T18:00:00Z,30.2513,-88.0778,2.407,7.86,11111222 
DISL,ioos:station:DISL:DISL:1,2019-05-07T19:00:00Z,30.2513,-88.0778,2.361,8.04,11111222 
DISL,ioos:station:DISL:DISL:1,2019-05-07T20:00:00Z,30.2513,-88.0778,2.312,8.1,11111222 
DISL,ioos:station:DISL:DISL:1,2019-05-07T21:00:00Z,30.2513,-88.0778,2.242,8.41,11111222 
DISL,ioos:station:DISL:DISL:1,2019-05-07T22:00:00Z,30.2513,-88.0778,2.192,8.12,11111222 
DISL,ioos:station:DISL:DISL:1,2019-05-07T23:00:00Z,30.2513,-88.0778,2.106,10.29,11133222 
DISL,ioos:station:DISL:DISL:1,2019-05-07T23:30:00Z,30.2513,-88.0778,2.08,9.86,11111222 
DISL,ioos:station:DISL:DISL:1,2019-05-08T00:30:00Z,30.2513,-88.0778,2.043,8.27,11111222 
DISL,ioos:station:DISL:DISL:1,2019-05-08T01:30:00Z,30.2513,-88.0778,1.996,7.9,11111222 
DISL,ioos:station:DISL:DISL:1,2019-05-08T02:30:00Z,30.2513,-88.0778,1.963,8.09,11111222 
DISL,ioos:station:DISL:DISL:1,2019-05-08T03:30:00Z,30.2513,-88.0778,1.945,7.78,11111222 
DISL,ioos:station:DISL:DISL:1,2019-05-08T04:30:00Z,30.2513,-88.0778,1.94,8.08,11111222 
DISL,ioos:station:DISL:DISL:1,2019-05-08T05:30:00Z,30.2513,-88.0778,1.956,7.12,11111222 
DISL,ioos:station:DISL:DISL:1,2019-05-08T06:30:00Z,30.2513,-88.0778,1.986,7.54,11111222 
DISL,ioos:station:DISL:DISL:1,2019-05-08T07:30:00Z,30.2513,-88.0778,2.019,6.97,11111222 
DISL,ioos:station:DISL:DISL:1,2019-05-08T08:30:00Z,30.2513,-88.0778,2.058,6.54,11111222 
DISL,ioos:station:DISL:DISL:1,2019-05-08T09:30:00Z,30.2513,-88.0778,2.09,7.11,11111222 
DISL,ioos:station:DISL:DISL:1,2019-05-08T10:30:00Z,30.2513,-88.0778,2.162,5.72,11111222 
DISL,ioos:station:DISL:DISL:1,2019-05-08T11:30:00Z,30.2513,-88.0778,2.214,5.29,11111222 
DISL,ioos:station:DISL:DISL:1,2019-05-08T12:30:00Z,30.2513,-88.0778,2.302,5.04,11111222 
DISL,ioos:station:DISL:DISL:1,2019-05-08T13:30:00Z,30.2513,-88.0778,2.37,5.5,11111222 
DISL,ioos:station:DISL:DISL:1,2019-05-08T14:30:00Z,30.2513,-88.0778,2.425,5.46,11111222 
DISL,ioos:station:DISL:DISL:1,2019-05-08T15:30:00Z,30.2513,-88.0778,2.449,5.07,11111222 
DISL,ioos:station:DISL:DISL:1,2019-05-08T16:30:00Z,30.2513,-88.0778,2.489,4.96,11111222 
DISL,ioos:station:DISL:DISL:1,2019-05-08T17:30:00Z,30.2513,-88.0778,2.521,5.06,11111222 
DISL,ioos:station:DISL:DISL:1,2019-05-08T18:30:00Z,30.2513,-88.0778,2.54,5.23,11111222 
DISL,ioos:station:DISL:DISL:1,2019-05-08T19:30:00Z,30.2513,-88.0778,2.524,5.88,11111222 
DISL,ioos:station:DISL:DISL:1,2019-05-08T20:30:00Z,30.2513,-88.0778,2.46,5.47,11111222 
DISL,ioos:station:DISL:DISL:1,2019-05-08T21:30:00Z,30.2513,-88.0778,2.412,6.62,11111222 
DISL,ioos:station:DISL:DISL:1,2019-05-08T22:30:00Z,30.2513,-88.0778,2.335,6.15,11111222 
DISL,ioos:station:DISL:DISL:1,2019-05-08T23:30:00Z,30.2513,-88.0778,2.286,6.02,11111222 
DISL,ioos:station:DISL:DISL:1,2019-05-09T00:30:00Z,30.2513,-88.0778,2.21,5.72,11111222 
DISL,ioos:station:DISL:DISL:1,2019-05-09T01:30:00Z,30.2513,-88.0778,2.153,6.4,11111222 
DISL,ioos:station:DISL:DISL:1,2019-05-09T02:30:00Z,30.2513,-88.0778,2.124,6.59,11111222 
DISL,ioos:station:DISL:DISL:1,2019-05-09T03:30:00Z,30.2513,-88.0778,2.092,7.04,11111222 
DISL,ioos:station:DISL:DISL:1,2019-05-09T04:30:00Z,30.2513,-88.0778,2.065,6.33,11111222 
DISL,ioos:station:DISL:DISL:1,2019-05-09T05:30:00Z,30.2513,-88.0778,2.06,6.31,11111222 
DISL,ioos:station:DISL:DISL:1,2019-05-09T06:30:00Z,30.2513,-88.0778,2.073,5.4,11111222 
DISL,ioos:station:DISL:DISL:1,2019-05-09T07:30:00Z,30.2513,-88.0778,2.091,5.27,11111222 
DISL,ioos:station:DISL:DISL:1,2019-05-09T08:30:00Z,30.2513,-88.0778,2.119,5.54,11111222 
DISL,ioos:station:DISL:DISL:1,2019-05-09T09:30:00Z,30.2513,-88.0778,2.157,4.63,11111222 
DISL,ioos:station:DISL:DISL:1,2019-05-09T10:30:00Z,30.2513,-88.0778,2.23,4.66,11111222 
DISL,ioos:station:DISL:DISL:1,2019-05-09T11:30:00Z,30.2513,-88.0778,2.276,5.1,11111222 
DISL,ioos:station:DISL:DISL:1,2019-05-09T12:30:00Z,30.2513,-88.0778,2.335,5.68,11111222 
DISL,ioos:station:DISL:DISL:1,2019-05-09T13:30:00Z,30.2513,-88.0778,2.397,5.35,11111222 
DISL,ioos:station:DISL:DISL:1,2019-05-09T15:00:00Z,30.2513,-88.0778,2.467,5.28,11111222 
DISL,ioos:station:DISL:DISL:1,2019-05-09T16:00:00Z,30.2513,-88.0778,2.533,5.61,11111222 
DISL,ioos:station:DISL:DISL:1,2019-05-09T17:00:00Z,30.2513,-88.0778,2.563,5.79,11111222 
DISL,ioos:station:DISL:DISL:1,2019-05-09T18:00:00Z,30.2513,-88.0778,2.596,5.63,11111222 
DISL,ioos:station:DISL:DISL:1,2019-05-09T19:00:00Z,30.2513,-88.0778,2.603,5.94,11111222 
DISL,ioos:station:DISL:DISL:1,2019-05-09T20:00:00Z,30.2513,-88.0778,2.589,5.57,11111222 
DISL,ioos:station:DISL:DISL:1,2019-05-09T21:00:00Z,30.2513,-88.0778,2.546,5.71,11111222 
DISL,ioos:station:DISL:DISL:1,2019-05-09T21:30:00Z,30.2513,-88.0778,2.52,5.32,11111222 
DISL,ioos:station:DISL:DISL:1,2019-05-09T22:30:00Z,30.2513,-88.0778,2.409,6.23,11111222 
DISL,ioos:station:DISL:DISL:1,2019-05-09T23:30:00Z,30.2513,-88.0778,2.436,6.68,11111222 
DISL,ioos:station:DISL:DISL:1,2019-05-10T00:30:00Z,30.2513,-88.0778,2.349,6.35,11111222 
DISL,ioos:station:DISL:DISL:1,2019-05-10T01:30:00Z,30.2513,-88.0778,2.263,6.98,11111222 
DISL,ioos:station:DISL:DISL:1,2019-05-10T03:00:00Z,30.2513,-88.0778,2.152,7.04,11111222 
DISL,ioos:station:DISL:DISL:1,2019-05-10T03:30:00Z,30.2513,-88.0778,2.13,7.19,11111222 
DISL,ioos:station:DISL:DISL:1,2019-05-10T05:00:00Z,30.2513,-88.0778,2.048,6.88,11111222 
DISL,ioos:station:DISL:DISL:1,2019-05-10T06:00:00Z,30.2513,-88.0778,2.024,6.83,11111222 
DISL,ioos:station:DISL:DISL:1,2019-05-10T07:00:00Z,30.2513,-88.0778,2.052,6.63,11111222 
DISL,ioos:station:DISL:DISL:1,2019-05-10T08:00:00Z,30.2513,-88.0778,2.138,6.53,11111222 
DISL,ioos:station:DISL:DISL:1,2019-05-10T09:00:00Z,30.2513,-88.0778,2.2,6.08,11111222 
DISL,ioos:station:DISL:DISL:1,2019-05-10T10:00:00Z,30.2513,-88.0778,2.327,6.29,11111222 
DISL,ioos:station:DISL:DISL:1,2019-05-10T11:00:00Z,30.2513,-88.0778,2.344,6.08,11111222 
DISL,ioos:station:DISL:DISL:1,2019-05-10T12:00:00Z,30.2513,-88.0778,2.421,6.46,11111222 
DISL,ioos:station:DISL:DISL:1,2019-05-10T13:00:00Z,30.2513,-88.0778,2.444,6.56,11111222 
DISL,ioos:station:DISL:DISL:1,2019-05-10T14:00:00Z,30.2513,-88.0778,2.461,6.21,11111222 
DISL,ioos:station:DISL:DISL:1,2019-05-10T15:00:00Z,30.2513,-88.0778,2.469,5.67,11111222 
DISL,ioos:station:DISL:DISL:1,2019-05-10T16:00:00Z,30.2513,-88.0778,2.493,5.72,11111222 
DISL,ioos:station:DISL:DISL:1,2019-05-10T17:00:00Z,30.2513,-88.0778,2.502,5.3,11111222 
DISL,ioos:station:DISL:DISL:1,2019-05-10T18:00:00Z,30.2513,-88.0778,2.511,5.72,11111222 
DISL,ioos:station:DISL:DISL:1,2019-05-10T19:00:00Z,30.2513,-88.0778,2.525,5.97,11111222 
DISL,ioos:station:DISL:DISL:1,2019-05-10T20:00:00Z,30.2513,-88.0778,2.535,7.67,11111222 
DISL,ioos:station:DISL:DISL:1,2019-05-10T21:00:00Z,30.2513,-88.0778,2.542,8.25,11111222 
DISL,ioos:station:DISL:DISL:1,2019-05-10T22:00:00Z,30.2513,-88.0778,2.51,7.71,11111222 
DISL,ioos:station:DISL:DISL:1,2019-05-10T23:00:00Z,30.2513,-88.0778,2.468,7.75,11111222 
DISL,ioos:station:DISL:DISL:1,2019-05-10T23:30:00Z,30.2513,-88.0778,2.435,7.84,11111222 
DISL,ioos:station:DISL:DISL:1,2019-05-11T00:30:00Z,30.2513,-88.0778,2.344,8.04,11111222 
DISL,ioos:station:DISL:DISL:1,2019-05-11T01:30:00Z,30.2513,-88.0778,2.321,7.76,11111222 
DISL,ioos:station:DISL:DISL:1,2019-05-11T02:30:00Z,30.2513,-88.0778,2.258,7.63,11111222 
DISL,ioos:station:DISL:DISL:1,2019-05-11T03:30:00Z,30.2513,-88.0778,2.208,7.49,11111222 
DISL,ioos:station:DISL:DISL:1,2019-05-11T04:30:00Z,30.2513,-88.0778,2.146,7.3,11111222 
DISL,ioos:station:DISL:DISL:1,2019-05-11T05:30:00Z,30.2513,-88.0778,2.111,7.28,11111222 
DISL,ioos:station:DISL:DISL:1,2019-05-11T06:30:00Z,30.2513,-88.0778,2.076,7.02,11111222 
DISL,ioos:station:DISL:DISL:1,2019-05-11T07:30:00Z,30.2513,-88.0778,2.099,7.27,11111222 
DISL,ioos:station:DISL:DISL:1,2019-05-11T08:30:00Z,30.2513,-88.0778,2.105,6.66,11111222 
DISL,ioos:station:DISL:DISL:1,2019-05-11T09:30:00Z,30.2513,-88.0778,2.144,6.37,11111222 
DISL,ioos:station:DISL:DISL:1,2019-05-11T10:30:00Z,30.2513,-88.0778,2.168,5.54,11111222 
DISL,ioos:station:DISL:DISL:1,2019-05-11T11:30:00Z,30.2513,-88.0778,2.21,6.26,11111222 
DISL,ioos:station:DISL:DISL:1,2019-05-11T12:30:00Z,30.2513,-88.0778,2.271,6.27,11111222 
DISL,ioos:station:DISL:DISL:1,2019-05-12T12:30:00Z,30.2513,-88.0778,2.246,5.64,11111222 
DISL,ioos:station:DISL:DISL:1,2019-05-13T20:30:00Z,30.2513,-88.0778,2.297,7.88,11111222 
DISL,ioos:station:DISL:DISL:1,2019-05-13T21:30:00Z,30.2513,-88.0778,2.34,8.47,11111222 
DISL,ioos:station:DISL:DISL:1,2019-05-13T22:30:00Z,30.2513,-88.0778,2.342,7.83,11111222 
DISL,ioos:station:DISL:DISL:1,2019-05-13T23:30:00Z,30.2513,-88.0778,2.337,7.88,11111222 
DISL,ioos:station:DISL:DISL:1,2019-05-14T00:30:00Z,30.2513,-88.0778,2.329,7.86,11111222 
DISL,ioos:station:DISL:DISL:1,2019-05-14T01:30:00Z,30.2513,-88.0778,2.293,7.66,11111222 
DISL,ioos:station:DISL:DISL:1,2019-05-14T02:30:00Z,30.2513,-88.0778,2.269,7.41,11111222 
DISL,ioos:station:DISL:DISL:1,2019-05-14T03:30:00Z,30.2513,-88.0778,2.26,7.75,11111222 
DISL,ioos:station:DISL:DISL:1,2019-05-14T04:30:00Z,30.2513,-88.0778,2.227,7.85,11111222 
DISL,ioos:station:DISL:DISL:1,2019-05-14T05:30:00Z,30.2513,-88.0778,2.191,7.71,11111222 
DISL,ioos:station:DISL:DISL:1,2019-05-14T06:30:00Z,30.2513,-88.0778,2.166,7.68,11111222 
DISL,ioos:station:DISL:DISL:1,2019-05-14T07:30:00Z,30.2513,-88.0778,2.135,7.69,11111222 
DISL,ioos:station:DISL:DISL:1,2019-05-14T08:30:00Z,30.2513,-88.0778,2.156,7.63,11111222 
DISL,ioos:station:DISL:DISL:1,2019-05-14T09:30:00Z,30.2513,-88.0778,2.148,7.53,11111222 
DISL,ioos:station:DISL:DISL:1,2019-05-14T10:30:00Z,30.2513,-88.0778,2.163,7.49,11111222 